User: anonymous   Login
Location: NJAA Observatory
(40.6819°N, 74.8979°W)
Time: 18:07:36
(UTC-04:00)
Language:

Cosmos 2082 - Orbit

View from above orbital plane
View from above orbital plane
View from above satellite
View from above satellite

Ground track
Ground track

The orbit data is extracted from the following two-line orbital elements,

1 20624U 90046A   17291.41031500  .00000080  00000-0  66694-4 0  9990
2 20624  71.0393 316.6584 0016033 206.7650 153.2647 14.14228829414616
Epoch (UTC): 18 October 2017 09:50:51
Eccentricity: 0.0016033
inclination: 71.0393°
perigee height: 833 km
apogee height: 856 km
right ascension of ascending node: 316.6584°
argument of perigee: 206.7650°
revolutions per day: 14.14228829
mean anomaly at epoch: 153.2647°
orbit number at epoch: 41461

The dashed part of the orbit path shows where the satellite is in the earth's shadow,  

DLR